Hourly Data Report for October 01, 2016

All times are specified in Local Standard Time (LST). Add 1 hour to adjust for Daylight Saving Time where and when it is observed.

POND INLET A
NUNAVUT

72°41'22.000" N
77°58'08.000" W
61.60 m
2403206
71095
YIO

Download Data

Hourly Data (October 2016)
Hourly Data Report for October 1, 2016
Temp Definition
°C
Dew Point Temp Definition
°C
Rel Hum Definition
%
Wind Dir Definition
10's deg

Wind Spd Definition
km/h
Visibility Definition
km
Stn Press Definition
kPa
Hmdx Definition


Wind Chill Definition


Weather Definition


TIME
00:00 Legend Double Dagger -2.8 -4.4 89 18 24 16.1 100.63   -9 LegendNANA
01:00 Legend Double Dagger -4.3 -5.9 89 17 22 16.1 100.64   -11 LegendNANA
02:00 Legend Double Dagger -3.7 -5.1 90 17 21 16.1 100.67   -10 LegendNANA
03:00 Legend Double Dagger -3.2 -4.6 90 17 15 16.1 100.69   -8 LegendNANA
04:00 Legend Double Dagger -3.4 -5.1 88 17 15 16.1 100.71   -9 LegendNANA
05:00 Legend Double Dagger -3.3 -5.3 86 15 17 16.1 100.70   -9 LegendNANA
06:00 Legend Double Dagger -3.0 -5.0 86 15 18 16.1 100.71   -9 LegendNANA
07:00 Legend Double Dagger -2.9 -4.9 86 17 15 16.1 100.71   -8 LegendNANA
08:00 Legend Double Dagger -3.0 -5.2 85 15 22 16.1 100.72   -9 LegendNANA
09:00 Legend Double Dagger -2.7 -5.0 84 15 26 14.5 100.69   -10 LegendNANA
10:00 Legend Double Dagger -2.0 -4.2 85 20 24 16.1 100.69   -8 LegendNANA
11:00 Legend Double Dagger -2.6 -5.1 83 20 15 16.1 100.68   -8 LegendNANA
12:00 Legend Double Dagger -2.9 -5.7 81 18 26 16.1 100.65   -10 LegendNANA
13:00 Legend Double Dagger -2.0 -5.0 80 20 21 16.1 100.65   -8 LegendNANA
14:00 Legend Double Dagger -2.4 -6.3 75 23 18 16.1 100.63   -8 LegendNANA
15:00 Legend Double Dagger -2.6 -6.4 75 21 13 16.1 100.64   -7 LegendNANA
16:00 Legend Double Dagger -3.7 -6.6 80 17 17 16.1 100.61   -9 LegendNANA
17:00 Legend Double Dagger -2.6 -6.2 76 25 22 16.1 100.57   -9 LegendNANA
18:00 Legend Double Dagger -2.9 -6.6 76 27 15 16.1 100.54   -8 LegendNANA
19:00 Legend Double Dagger -4.4 -6.8 83 20 9 16.1 100.54   -8 LegendNANA
20:00 Legend Double Dagger -5.3 -7.0 88 20 13 16.1 100.50   -10 LegendNANA
21:00 Legend Double Dagger -5.3 -6.8 89 18 18 16.1 100.44   -12 LegendNANA
22:00 Legend Double Dagger -5.9 -7.5 89 17 17 16.1 100.41   -12 LegendNANA
23:00 Legend Double Dagger -4.7 -6.9 85 21 15 16.1 100.35   -10 LegendNANA

Notes on Data Quality.

Legend

  • E = Estimated
  • M = Missing
  • NA = Not Available
  • ‡ = Partner data that is not subject to review by the National Climate Archives
Date modified: